カタログに戻る

IRIDIUM 33 DEB

運用中PO
NORAD 33775·DEBRIS·🇺🇸 United States

打ち上げ Sep 14, 1997 から Baikonur Cosmodrome

Loading…

次のパス (今後24時間)

TLE

最新Source: Space-Track

元期: Sep 14, 2026, 10:20 UTC

1 33775U 97051N   26257.43069597  .00000732  00000-0  21629-3 0  9997
2 33775  86.3597 291.7959 0011344 341.8731  83.5967 14.42189193921133

AllMySatでIRIDIUM 33 DEBをリアルタイム追跡

Download on the App Store